Weather History for Managua, Nicaragua

Change the Weather History Date:

Monday, October 7, 2013

  Actual Average Record
Temperature  
Mean Temperature 82 °F -  
Max Temperature 91 °F 86 °F 93 °F (2006)
Min Temperature 73 °F 71 °F 39 °F (1999)
Cooling Degree Days 17    
Growing Degree Days 32 (Base 50)    
Moisture  
Dew Point 74 °F    
Average Humidity 80    
Maximum Humidity 100    
Minimum Humidity 52    
Precipitation  
Precipitation 0.00 in - - ()
Sea Level Pressure  
Sea Level Pressure 29.83 in    
Wind  
Wind Speed 3 mph ()    
Max Wind Speed 16 mph    
Max Gust Speed -    
Visibility 5.9 miles    
Events Rain , Thunderstorm    
Averages and records for this station are not official NWS values.
T = Trace of Precipitation, MM = Missing Value Source: Averaged Metar Reports

Daily Weather History Graph

Daily Weather History Graph

Search for Another Location

Airport:

Trip Planner

Search our weather history database for the weather conditions in past years. The results will help you decide how hot, cold, wet, or windy it might be!

Date:

Astronomy

Oct. 07, 2013 Rise Set
Actual Time 5:33 AM CST 5:30 PM CST
Civil Twilight 5:12 AM CST 5:51 PM CST
Nautical Twilight 4:48 AM CST 6:16 PM CST
Astronomical Twilight 4:23 AM CST 6:41 PM CST
Moon 7:52 AM CST (10/7) 7:48 PM CST (10/7)
Length of Visible Light 12h 39m
Length of Day
11h 56m
Waxing Crescent, 9% of the Moon is Illuminated
Oct 7
Waxing Crescent
Oct 11
First Quarter
Oct 18
Full
Oct 26
Last Quarter
Nov 3
New

Hourly Weather History & Observations

Time (CST) Temp. Heat Index Dew Point Humidity Pressure Visibility Wind Dir Wind Speed Gust Speed Precip Events Conditions
12:00 AM 75.2 °F - 71.6 °F 89% 29.86 in 5.6 mi Calm Calm - N/A   Light Drizzle
3:00 AM 75.2 °F - 71.6 °F 89% 29.80 in 6.2 mi Calm Calm - N/A   Partly Cloudy
4:00 AM 75.2 °F - 71.6 °F 89% 29.80 in 6.2 mi Calm Calm - N/A   Partly Cloudy
5:00 AM 73.4 °F - 71.6 °F 94% 29.83 in 6.2 mi Calm Calm - N/A   Partly Cloudy
6:00 AM 73.4 °F - 73.4 °F 100% 29.86 in 6.2 mi Calm Calm - N/A   Scattered Clouds
7:00 AM 77.0 °F - 75.2 °F 94% 29.86 in 6.2 mi Calm Calm - N/A   Scattered Clouds
8:00 AM 80.6 °F 86.2 °F 75.2 °F 84% 29.86 in 6.2 mi SSE 4.6 mph - N/A   Scattered Clouds
9:00 AM 84.2 °F 92.3 °F 75.2 °F 74% 29.89 in 6.2 mi ESE 9.2 mph - N/A   Scattered Clouds
10:00 AM 86.0 °F 93.4 °F 73.4 °F 66% 29.89 in 6.2 mi ESE 11.5 mph - N/A   Scattered Clouds
11:00 AM 87.8 °F 97.6 °F 75.2 °F 66% 29.86 in 6.2 mi East 9.2 mph - N/A   Scattered Clouds
12:00 PM 89.6 °F 98.2 °F 73.4 °F 59% 29.83 in 6.2 mi ESE 6.9 mph - N/A   Scattered Clouds
1:00 PM 87.8 °F 97.6 °F 75.2 °F 66% 29.80 in 6.2 mi NNE 4.6 mph - N/A   Partly Cloudy
2:00 PM 91.4 °F 98.4 °F 71.6 °F 52% 29.77 in 6.2 mi SE 4.6 mph - N/A   Scattered Clouds
3:00 PM 91.4 °F 102.5 °F 75.2 °F 59% 29.74 in 6.2 mi Calm Calm - N/A   Scattered Clouds
4:00 PM 91.4 °F 98.4 °F 71.6 °F 52% 29.74 in 6.2 mi Calm Calm - N/A   Scattered Clouds
4:37 PM - - - N/A% - 3.7 mi East 16.1 mph - N/A Rain Heavy Rain
5:00 PM 77.0 °F - 73.4 °F 89% 29.80 in 5.6 mi ENE 11.5 mph - N/A   Light Drizzle
5:10 PM - - - N/A% - 5.6 mi East 4.6 mph - N/A Rain , Thunderstorm Light Thunderstorms and Rain
6:00 PM 77.0 °F - 73.4 °F 89% 29.80 in 5.6 mi NNE 4.6 mph - N/A Rain Rain
7:00 PM 77.0 °F - 73.4 °F 89% 29.83 in 6.2 mi Calm Calm - N/A   Scattered Clouds
8:00 PM 77.0 °F - 73.4 °F 89% 29.86 in 5.6 mi Calm Calm - N/A   Light Drizzle
9:00 PM 78.8 °F - 73.4 °F 83% 29.89 in 5.6 mi SSE 4.6 mph - N/A   Light Drizzle
10:00 PM 78.8 °F - 75.2 °F 89% 29.89 in 6.2 mi Calm Calm - N/A   Scattered Clouds
11:00 PM 78.8 °F - 75.2 °F 89% 29.89 in 6.2 mi ESE 4.6 mph - N/A   Scattered Clouds